This is the latest recevied weather packets stored in our database for station/object AF9W-5. If no packets are shown the sender has not sent any weather packets the latest 10 day(s).
| Time | Temp. | Humidity | Pressure | Rain* | Wind** | Luminosity | Snow |
|---|---|---|---|---|---|---|---|
| 1777524538 | 19.44° C | 19% | 1014.1 hPa | 0 mm | - | 0 W/m² | - |
| 1777524235 | 19.44° C | 19% | 1013.9 hPa | 0 mm | - | 0 W/m² | - |
| 1777523931 | 20° C | 20% | 1014 hPa | 0 mm | - | 0 W/m² | - |
| 1777523628 | 20° C | 20% | 1013.9 hPa | 0 mm | - | 0 W/m² | - |
| 1777523324 | 20.56° C | 19% | 1014.3 hPa | 0 mm | - | 0 W/m² | - |
| 1777523020 | 20.56° C | 19% | 1013.7 hPa | 0 mm | - | 0 W/m² | - |
| 1777522718 | 20.56° C | 19% | 1014 hPa | 0 mm | - | 0 W/m² | - |
| 1777522413 | 21.11° C | 19% | 1013.4 hPa | 0 mm | - | 0 W/m² | - |
| 1777522111 | 21.11° C | 19% | 1013.9 hPa | 0 mm | - | 0 W/m² | - |
| 1777521807 | 21.11° C | 18% | 1013.9 hPa | 0 mm | - | 0 W/m² | - |
| 1777521504 | 21.11° C | 19% | 1013.7 hPa | 0 mm | - | 0 W/m² | - |
| 1777521201 | 21.11° C | 19% | 1013.9 hPa | 0 mm | - | 0 W/m² | - |
| 1777520898 | 21.67° C | 19% | 1013.5 hPa | 0 mm | - | 0 W/m² | - |
| 1777520595 | 21.67° C | 19% | 1013.6 hPa | 0 mm | - | 0 W/m² | - |
| 1777520292 | 21.11° C | 19% | 1013.3 hPa | 0 mm | - | 0 W/m² | - |
| 1777519990 | 20.56° C | 20% | 1013.5 hPa | 0 mm | - | 0 W/m² | - |
| 1777519686 | 20.56° C | 20% | 1013.6 hPa | 0 mm | - | 0 W/m² | - |
| 1777519383 | 20.56° C | 20% | 1013.2 hPa | 0 mm | - | 0 W/m² | - |
| 1777519080 | 21.11° C | 20% | 1013.4 hPa | 0 mm | - | 0 W/m² | - |
| 1777518776 | 21.11° C | 19% | 1013.2 hPa | 0 mm | - | 0 W/m² | - |
| 1777518472 | 21.11° C | 20% | 1013 hPa | 0 mm | - | 0 W/m² | - |
| 1777518167 | 21.11° C | 20% | 1013.1 hPa | 0 mm | - | 0 W/m² | - |
| 1777517864 | 21.67° C | 19% | 1013.4 hPa | 0 mm | - | 0 W/m² | - |
| 1777517560 | 21.67° C | 19% | 1012.8 hPa | 0 mm | - | 0 W/m² | - |
| 1777517259 | 22.22° C | 19% | 1012.9 hPa | 0 mm | - | 0 W/m² | - |
* Rain latest hour (hover to see other rain measurements)
** Current wind speed in m/s (hover to see current wind gust speed)